Location: Krasnoyarskiy Pitomnik
(51.1333°N, 71.6167°E)
Time: 21:04:01
(UTC+00:00)

A-11 Canister half - Pass Details

Date: 28 April 2024
Orbit: 1525 x 1683 km, 47.3° (Epoch: 19 May)

Event Time Altitude Azimuth Distance (km) Brightness Sun altitude
Rises 23:24:48 0° 233° (SW) 4,822 - -4.3°
Exits shadow 23:26:08 - 231° (SW) 4,411 10.7 -4.2°
Reaches altitude 10° 23:27:57 10° 229° (SW) 3,858 10.5 -3.9°
Maximum altitude 23:37:29 55° 155° (SSE) 1,935 9.6 -2.6°
Drops below altitude 10° 23:47:15 10° 82° (E) 3,948 12.8 -1.2°
Sets 23:50:30 0° 78° (ENE) 4,941 13.8 -0.8°
